Location: Plymouth
(43.7490°N, 87.9770°W)
Time: 22:34:03
(UTC-05:00)

Daily predictions for brighter satellites

Satellite Brightness Start Highest point End
(mag) Time Altitude Azimuth Time Altitude Azimuth Time Altitude Azimuth
Cosmos 1680 Rocket 3.9 21:03:24 10° N 21:08:31 50° ENE 21:13:37 10° SE
deb Chang Zheng 4 3.6 21:04:39 10° NNE 21:08:59 65° ESE 21:13:17 10° S
CZ-4 SHROUD 4.0 21:08:53 10° SE 21:11:47 35° ENE 21:14:41 10° N
Delta 2 Rocket 4.5 21:09:23 10° SW 21:11:57 18° S 21:14:25 10° SE
Cosmos 923 Rocket 4.1 21:07:30 10° NNW 21:12:43 70° ENE 21:17:53 10° SSE
SPOT 1/Viking Rocket 4.5 21:10:57 10° SE 21:15:31 33° ENE 21:20:07 10° N
Meteor 1-21 Rocket 4.3 21:11:19 10° S 21:16:52 87° W 21:22:26 10° N
MetOp-A 4.5 21:13:53 10° SE 21:19:02 52° ENE 21:24:13 10° N
Cosmos 2219 Rocket 3.8 21:15:01 10° N 21:19:18 22° NE 21:23:34 10° E
USA 186 4.3 21:20:07 10° WSW 21:21:07 12° W 21:22:07 10° WNW
ARGOS 4.1 21:18:47 10° SE 21:23:36 35° ENE 21:28:26 10° N
USA 229 DEB 3.8 21:18:05 10° SSW 21:25:00 88° SE 21:32:04 10° NE
USA 229 3.8 21:18:10 10° SSW 21:25:07 87° SE 21:32:10 10° NE
Cosmos 1515 Rocket 4.1 21:20:58 10° NNW 21:25:22 60° W 21:29:42 10° S
Cosmos 1328 4.3 21:23:09 10° SSE 21:26:53 42° E 21:30:38 10° NNE
Cosmos 773 Rocket 4.3 21:23:28 10° NNW 21:28:39 69° WSW 21:33:50 10° S
Nimbus 7 Rocket 4.4 21:23:56 10° NNE 21:29:49 78° ESE 21:35:41 10° SSW
Cosmos 2151 3.0 21:28:50 10° S 21:32:58 61° E 21:37:08 10° NNE
USA 245 3.5 21:32:07 13° SE 21:33:55 25° ENE 21:35:55 10° NNE
Sich 1 4.2 21:34:24 11° SE 21:37:56 27° E 21:41:37 10° NNE
Cosmos 1633 Rocket 4.2 21:36:53 12° SE 21:40:13 26° E 21:43:52 10° NNE
Cosmos 1726 3.2 21:37:00 10° NNE 21:40:23 30° ENE 21:43:05 14° SE
Tiangong 1 2.6 21:39:29 10° SSW 21:41:37 17° SSE 21:42:38 15° SE
Cosmos 2219 3.4 21:37:02 10° S 21:42:37 55° ESE 21:48:14 10° NNE
NOSS 3-1 (A) 4.0 21:39:36 10° S 21:44:48 34° ESE 21:50:27 10° NE
Cosmos 1151 Rocket 3.5 21:42:21 10° NNW 21:46:37 60° W 21:50:52 10° S
SWAS 4.5 21:42:19 10° NNW 21:46:40 88° NE 21:50:23 14° SSE
Cosmos 2266 Rocket 4.2 21:40:27 10° S 21:46:45 79° W 21:52:59 10° N
Cosmos 2315 Rocket 4.0 21:41:15 10° N 21:47:28 76° E 21:53:39 10° SSE
SPOT 5 3.1 21:44:32 10° S 21:49:04 69° WSW 21:53:53 10° NNW
Cosmos 1271 Rocket 4.1 21:46:04 10° NNE 21:49:19 25° ENE 21:51:39 15° ESE
Cosmos 2237 Rocket 3.7 21:44:45 10° N 21:49:26 25° NE 21:54:04 10° ESE
Cosmos 2322 4.0 21:44:23 10° NNW 21:50:04 67° WSW 21:55:37 10° SSE
SL-14 R/B 3.9 21:48:34 13° SSE 21:51:39 38° E 21:55:23 10° NNE
Cosmos 2322 Rocket 4.2 21:47:49 10° NW 21:52:04 22° W 21:56:17 10° SSW
Meteor 1-27 4.4 21:47:22 10° N 21:53:02 63° ENE 21:57:52 14° SSE
Cosmos 2058 2.9 21:49:25 10° S 21:53:27 63° E 21:57:31 10° NNE
Cosmos 1805 Rocket 3.6 21:50:26 10° S 21:54:50 63° E 21:59:14 10° NNE
PSLV R/B 4.1 21:54:43 10° S 21:57:40 44° W 22:00:38 10° NNW
Cosmos 2360 Rocket 2.8 21:56:32 10° NW 22:02:00 51° WSW 22:07:20 11° S
SL-16 R/B 4.4 21:58:49 10° NW 22:02:48 20° W 22:06:47 10° SW
Envisat 4.1 21:58:07 10° SSW 22:02:54 41° W 22:07:43 10° NNW
Cosmos 1437 3.6 22:00:01 10° SSW 22:03:13 50° WNW 22:06:27 10° N
NOAA 11 4.2 22:01:59 15° SSE 22:06:31 75° ENE 22:11:59 10° N
ATLAS 2AS CENTAUR R/B 4.0 22:03:26 15° SSE 22:07:33 24° ESE 22:13:33 10° ENE
Meteor 1-4 Rocket 3.2 22:04:11 10° N 22:07:48 43° ENE 22:09:49 22° SE
Cosmos 1244 Rocket 4.5 22:02:54 10° S 22:09:12 78° E 22:15:29 10° N
H-2A R/B 4.2 22:07:39 10° SSW 22:11:19 24° W 22:15:00 10° NW
Cosmos 1707 Rocket 3.5 22:07:44 10° N 22:12:07 86° W 22:15:29 17° S
SL-23 DEB 4.4 22:09:30 10° WNW 22:14:14 46° SW 22:16:05 23° SSE
Cosmos 1666 Rocket 3.5 22:13:18 13° S 22:17:12 81° E 22:21:39 10° N
Meteor 2-11 Rocket 4.5 22:12:07 10° N 22:18:18 88° W 22:23:24 16° S
Cosmos 2298 Rocket 4.0 22:15:23 10° SSW 22:20:41 76° ESE 22:26:02 10° NNE
Cosmos 1626 3.5 22:20:37 21° ESE 22:21:32 23° E 22:24:34 10° NE
Meteor 1-11 4.3 22:17:14 10° S 22:23:01 87° W 22:28:48 10° N
ATLAS 3B R/B 3.9 22:17:28 10° NNW 22:23:53 34° NE 22:29:56 10° E
Cosmos 1937 Rocket 3.7 22:20:01 17° S 22:23:54 49° ESE 22:28:55 10° NNE
IGS 5A 4.1 22:21:55 23° SE 22:24:03 41° ENE 22:28:00 10° N
Cosmos 220 Rocket 4.4 22:22:01 22° SSE 22:24:24 43° ESE 22:28:37 10° NNE
Landsat 7 3.8 22:22:40 22° SSE 22:25:43 74° ENE 22:30:30 10° N
Cosmos 1745 Rocket 4.1 22:22:21 18° SSE 22:27:00 58° E 22:33:03 10° NNE
Cosmos 292 Rocket 3.7 22:23:59 10° NNW 22:28:46 75° ENE 22:31:27 26° SSE
Cosmos 1300 3.4 22:25:32 10° NNW 22:29:16 49° W 22:31:57 17° SSW
Cosmos 2227 Rocket 2.9 22:27:04 22° SSE 22:29:54 35° ESE 22:35:00 10° NE
Cosmos 1470 Rocket 4.0 22:28:46 26° SSE 22:30:43 44° E 22:34:50 10° NNE
NOSS 3-1 (C) 3.4 22:25:49 10° SW 22:31:43 89° SE 22:38:19 10° NE
Cosmos 1933 Rocket 4.0 22:29:58 26° SSE 22:32:02 44° E 22:36:18 10° NNE
Cosmos 990 Rocket 4.3 22:33:45 24° SSE 22:36:27 45° ESE 22:41:20 10° NNE
YAOGAN 6 4.5 22:35:21 11° SSW 22:38:15 25° W 22:41:19 10° NW
Cosmos 2333 Rocket 2.4 22:34:11 10° NNW 22:39:54 63° ENE 22:43:13 26° SE
Terra 1.8 22:39:02 27° SSE 22:41:35 74° ENE 22:46:21 10° N
Spot 4 4.1 22:39:31 27° SE 22:42:00 59° ENE 22:46:47 10° N
SL-16 R/B 3.6 22:37:16 10° N 22:42:11 29° NE 22:45:52 15° ESE
Cosmos 1346 3.6 22:42:11 40° ESE 22:42:19 41° E 22:45:13 10° NNE
H-2A R/B 2.1 22:39:08 25° SSE 22:42:22 84° ENE 22:47:50 10° NNW
NOSS 0 Rocket 3.9 22:39:32 10° NNW 22:45:44 81° ENE 22:49:18 27° SSE
COSMOS 2428 3.6 22:46:08 10° NW 22:51:27 42° WSW 22:55:02 19° SSW
Cosmos 1455 2.2 22:48:15 10° N 22:52:03 65° E 22:53:11 41° SE
Cosmos 1386 Rocket 4.4 22:50:12 25° S 22:53:47 68° E 22:59:46 10° NNE
Cosmos 2297 Rocket 2.7 22:55:00 30° SSE 22:57:05 41° ESE 23:02:21 10° NE
OAO 2 Rocket 4.4 22:53:29 10° SW 22:57:14 27° S 22:57:14 27° S
BREEZE-M DEB (TANK) 4.4 22:59:28 25° ESE 22:59:28 25° ESE 23:04:19 10° ENE
Cosmos 2242 Rocket 4.4 22:54:49 10° NNW 22:59:06 46° W 23:01:40 22° SSW
Cosmos 1869 3.3 22:56:45 10° N 23:00:47 68° E 23:01:58 43° SSE
Cosmos 2219 Rocket 2.3 22:58:13 10° NNW 23:03:46 67° WSW 23:06:29 30° S
ARGOS 4.4 22:59:48 14° SSW 23:03:49 34° W 23:08:41 10° NNW
CZ-4C R/B 4.3 23:02:29 24° SW 23:03:51 33° W 23:07:01 10° NNW
Cosmos 1898 Rocket 4.2 23:00:23 10° SW 23:05:25 52° WNW 23:10:32 10° NNE
SAR-Lupe-2 3.8 23:06:09 43° SSW 23:07:05 63° WSW 23:10:39 10° NNW
Cosmos 1862 Rocket 3.5 23:06:21 10° NNW 23:10:43 76° W 23:12:14 39° S
CZ-4B R/B 4.1 23:10:33 10° ENE 23:11:17 11° ENE 23:12:05 10° NE
Cosmos 1125 Rocket 4.1 23:10:01 34° SE 23:11:22 40° ESE 23:16:20 10° NE
CARTOSAT-1 4.2 23:11:16 29° SSW 23:13:05 48° W 23:17:16 10° NNW
SeaSat 1 3.2 23:12:26 26° ESE 23:14:46 44° NE 23:19:27 10° NNW
Cosmos 1726 4.5 23:12:54 10° NW 23:15:31 18° W 23:17:46 12° SW
Tiangong 1 3.8 23:14:47 10° WSW 23:14:50 10° WSW 23:14:50 10° WSW
Cosmos 1980 3.8 23:15:25 10° NNW 23:21:01 67° WSW 23:23:22 35° S
Lacrosse 4 Rocket 2.3 23:18:53 10° NNW 23:23:07 43° NE 23:24:39 31° ESE
Cosmos 192 4.3 23:18:21 10° NNW 23:23:18 82° WSW 23:24:55 43° S
Cosmos 2237 Rocket 2.5 23:28:17 10° NNW 23:33:53 58° WSW 23:36:00 36° S
Aureole 2 Rocket 4.5 23:32:11 10° NNE 23:34:20 17° ENE 23:34:34 17° ENE
NOSS 3-1 (A) 4.4 23:29:37 10° WSW 23:35:25 49° NW 23:41:55 10° NNE
Cosmos 2082 3.9 23:34:34 20° SW 23:38:37 70° WNW 23:44:21 10° NNE
Cosmos 1869 Rocket 3.7 23:39:09 53° SE 23:39:53 62° E 23:44:20 10° NNE
Cosmos 372 Rocket 4.4 23:40:24 40° SE 23:41:14 43° ESE 23:46:10 10° NNE
Meteor 2-3 Rocket 4.4 23:41:29 34° SE 23:42:58 40° E 23:48:17 10° NNE
CZ-4C R/B 3.9 23:44:58 38° ENE 23:45:01 38° ENE 23:48:22 10° N
ERBS 2.5 23:45:24 67° W 23:45:40 72° NW 23:49:09 10° NE
COSMOS 2455 2.8 23:41:14 10° NNW 23:47:19 90° ENE 23:49:34 41° SSE
ALOS 2 3.3 23:48:22 37° ESE 23:49:16 41° ENE 23:53:25 10° N
H-2A R/B 3.4 23:46:00 10° NNE 23:49:51 34° E 23:49:51 34° E
Cosmos 1626 4.2 23:55:19 18° WSW 23:56:52 23° WNW 23:59:55 10° NNW
